STARLINK-5742, 55583

Orbit data source: Space-Track

STARLINK-5742, 55583 is a payload satellite owned by SpaceX/Seattle (US) in LEO that was launched on Sun, 12 Feb 2023 UTC via an FALCON 9 launch vehicle from the Air Force Eastern Test Range (AFETR). Payload-class satellites include a variety of spacecraft equipped with specific instruments for various scientific and technological missions. These include communications satellites like Starlink; space stations such as the ISS; scientific satellites like the Hubble; Earth observation satellites from companies like Planet Labs, Umbra, and HawkEye 360; GPS; miniature CubeSats for education and research; and military/defense satellites.

Loading next visibility...
Identifier
55583, 2023-020Q
Orbit
LEO
Country
Flag of USUS
Related business
Manufacturer
SpaceX/Seattle
Mission
Operational Commercial Communications
Bus & Motor
STARLINK, Unknown motor
Mass
305 kg wet, ~290 kg dry
Launch date (UTC)
2023-02-12 (4 years ago)
Launch vehicle
FALCON 9
Launch site
Air Force Eastern Test Range (AFETR)
Object type
Payload
Rocket body
Debris
Shape & HBR
Box + 1 Pan, 10.1 m
Radar Cross Section
13.562 m², Large (>1 m²)

Expand to show TLE details & history
Last TLE update: 7 hours ago

TLE from 7 hours ago
0 STARLINK-5742
1 55583U 23020Q   26264.23997178 -.00000106  00000-0  56735-5 0  9998
2 55583  43.0031 340.4988 0001286 273.8005  86.2699 15.27574374198820
Epoch: 2026-09-21T05:45Z
TLE epoch observation values (Epoch: 2026-09-21T05:45:33.561Z)
Latitude
-0.00008°
Longitude
-106.01376°
Altitude
482.784 km
Speed
7.626 km/s
True Right ascension
22h 41m 59s
True Declination
0° 00' 00"
Sunlit
Object was in full shadow at epoch
Visualization orbit readout
Latitude
Unknown
Longitude
Unknown
Altitude
Unknown
Speed
Unknown
Apparent Right ascension
Unknown
Apparent Declination
Unknown
Sunlit
N/A
Visualization observer readout
Local Sidereal Time
06:00:05
Azimuth
Unknown
Elevation
Unknown
Doppler factor
Unknown
Orbital elements
Apogee altitude
485.893 km
Perigee altitude
484.128 km
Semi-major axis
6,863.148 km
Eccentricity
0.00013
Inclination
43.0031°
RAAN
340.4988°
Arg. of periapsis
273.8005°
True anomaly
86.28461°
Mean anomaly
86.2699°
Eccentric anomaly
86.27725°
Mean motion
3.81732 °/min
Orbital period
94.31 mins
BSTAR
0.0000056735
Loading maneuver chart data...
Computing Atmospheric mass density...
Loading historical data...
Loading historical data...
Loading historical data...
Loading historical data...
Loading historical data...
Loading historical data...
Loading historical data...

Documentation

Showing up to 5 results
|